Regional Weather Roundup
Issued by NWS Upton, NY

Current Version | Previous Version | Graphics & Text | Print | Product List | Glossary Off
Versions: 1 2 3 4 5 6 7 8 9 10 11 12 13 14 15 16 17 18 19 20 21 22 23 24 25 26 27 28 29 30 31 32 33 34 35 36 37 38 39 40 41 42 43 44 45 46 47 48 49 50

000
ASUS41 KOKX 281805
RWROKX

REGIONAL WEATHER ROUNDUP
NATIONAL WEATHER SERVICE NEW YORK NY
100 PM EST SAT FEB 28 2015

NOTE: "FAIR" INDICATES FEW OR NO CLOUDS BELOW 12,000 FEET WITH NO
SIGNIFICANT WEATHER AND/OR OBSTRUCTIONS TO VISIBILITY.

NYZ071-072-176-178-NJZ106-104-281900-
NEW YORK CITY METRO AREA


CITY           SKY/WX    TMP DP  RH WIND       PRES   REMARKS
CENTRAL PARK   SUNNY     25   1  35 CALM      30.80F
LAGUARDIA APRT MOSUNNY   25   1  35 NW6       30.78F WCI  18
KENNEDY INTL   MOSUNNY   26   4  38 SW9       30.80F WCI  17
NEWARK/LIBERTY MOSUNNY   26   3  37 VRB3      30.79F
BRNX BOT. GARD   N/A    N/A N/A N/A W3        30.77F
TETERBORO      SUNNY     24  -2  32 CALM      30.78F
$$

NYZ177-179-078>081-281900-
LONG ISLAND NEW YORK

CITY           SKY/WX    TMP DP  RH WIND       PRES   REMARKS
FARMINGDALE    SUNNY     25   3  38 NW6       30.77F WCI  18
ISLIP          MOSUNNY   24   5  44 NW12      30.75F WCI  13
SHIRLEY        SUNNY     25   5  42 N9        30.77F WCI  15
WESTHAMPTON    SUNNY     24   5  44 NW10      30.77F WCI  14
MONTAUK POINT    N/A     23   7  50 VRB6      30.77F WCI  16
$$

NYZ052-065-067-281900-
HUDSON VALLEY

CITY           SKY/WX    TMP DP  RH WIND       PRES   REMARKS
WHITE PLAINS   SUNNY     22   2  42 NW6       30.74F WCI  14
NEWBURGH       SUNNY     19   1  45 CALM      30.76F
MONTGOMERY     SUNNY     21  -1  38 S5        30.74F WCI  15
POUGHKEEPSIE   SUNNY     23   0  36 CALM      30.77F
ALBANY         SUNNY     22   3  44 VRB5      30.77F WCI  16
$$

NJZ001-105-106-008-010-013-015-019>022-104-281900-
NEW JERSEY

CITY           SKY/WX    TMP DP  RH WIND       PRES   REMARKS
NEWARK/LIBERTY MOSUNNY   26   3  37 VRB3      30.79F
TETERBORO      SUNNY     24  -2  32 CALM      30.78F
CALDWELL       SUNNY     23   0  36 S5        30.78F WCI  17
MORRISTOWN     MOSUNNY   23   1  39 CALM      30.79F
SOMERVILLE     SUNNY     27   0  31 CALM      30.77F
SUSSEX         SUNNY     23   2  40 S3        30.74F
ANDOVER          N/A     25   0  33 CALM      30.74F
TRENTON        SUNNY     24  -1  33 W7        30.80F WCI  16
MILLVILLE      MOSUNNY   27   2  34 NW6       30.81F WCI  20
ATLANTIC CITY  MOSUNNY   28   1  31 VRB7      30.79F WCI  21
WRIGHTSTOWN    SUNNY     25   2  37 W8        30.78F WCI  16
TOMS RIVER     SUNNY     28   1  31 W8        30.79F WCI  20
BELMAR         SUNNY     27   1  33 NW5       30.78F WCI  21
$$

PAZ047>061-062-071-281900-
EASTERN PENNSYLVANIA

CITY           SKY/WX    TMP DP  RH WIND       PRES   REMARKS
PHILADELPHIA   MOSUNNY   27  -2  28 CALM      30.82F
ALLENTOWN      SUNNY     22  -4  32 CALM      30.79F
SCRANTON       SUNNY     21   0  39 CALM      30.73F
$$

CTZ002-004>006-009-010-012-RIZ004-006-007-MAZ004-011-015-281900-
SOUTHERN NEW ENGLAND
 IN CT

CITY           SKY/WX    TMP DP  RH WIND       PRES   REMARKS
BRADLEY INTL   MOSUNNY   26   0  32 CALM      30.73F
HARTFORD       SUNNY     24   1  36 SE3       30.76F
DANBURY        SUNNY     23   0  36 N6        30.75F WCI  16
WTRBRY/OXFORD  SUNNY     21   0  39 N6        30.73F WCI  14
BRIDGEPORT     SUNNY     27   3  35 VRB5      30.77F WCI  22
MERIDEN        SUNNY     26  -1  31 CALM      30.75F
NEW HAVEN      SUNNY     25   4  40 S7        30.76F WCI  17
CHESTER        FAIR      27   1  33 NW3       30.73F
GROTON         SUNNY     22   8  55 SW12      30.75F WCI  10
WILLIMANTIC    SUNNY     26  -1  31 W5        30.73F WCI  20

 IN RI

CITY           SKY/WX    TMP DP  RH WIND       PRES   REMARKS
PROVIDENCE     MOSUNNY   28  -1  28 W10       30.73F WCI  19
BLOCK ISLAND   FAIR      25   7  46 W7        30.74S WCI  17
WESTERLY       SUNNY     25   5  42 SW7       30.75F WCI  17

 IN MA

CITY           SKY/WX    TMP DP  RH WIND       PRES   REMARKS
BOSTON         MOSUNNY   27   0  31 W8        30.72F WCI  19
WORCESTER      SUNNY     22  -1  36 SW8       30.64F WCI  12
WESTFIELD      SUNNY     26  -1  31 CALM      30.71F
PROVINCETOWN   SUNNY     23   3  42 W8        30.73F WCI  14
NANTUCKET      SUNNY     27  12  53 NW9       30.73F WCI  18
$$

ANZ330-335-338-340-345-350-353-355-281900-
COASTAL MARINE OBSERVATIONS


STATION/POSITION TIME  SKY/WX   TEMP    WIND        PRES    VSBY  WAVE
                                AIR SEA DIR/SP/G                  HT/PER
                 (UTC)          (F)     (DEG/KT/KT) (MB)    (MI)  (FT/S)
NY HARB ENTRANCE 1800            21 38  300/  8/ 10 1042.8          2/10
4S FIRE IS       NOT AVBL
20S FIRE ISLAND  1700               36              1044.0          3/ 9
23SW MTP         1800                                 N/A           3/10
HUDSON CANYON    NOT AVBL
EXECUTION ROCKS  NOT AVBL
WESTERN LI SOUND NOT AVBL
CENTRAL LI SOUND NOT AVBL
EASTERN LI SOUND NOT AVBL
ROBBINS REEF     1700            20     320/  3/  4 1042.2
$$


>>>>>>>>>>>>>>>>>>>>>>>>>>>> KEY <<<<<<<<<<<<<<<<<<<<<<<<<<<
>                                                          <
>     SKY/WX - SKY CONDITION/PRESENT WEATHER               <
>     TMP    - TEMPERATURE IN FAHRENHEIT                   <
>     DP     - DEWPOINT IN FAHRENHEIT                      <
>     RH     - RELATIVE HUMIDITY IN PERCENT                <
>     WIND   - DIRECTION AND SPEED IN MPH                  <
>     PRES   - MEAN SEA LEVEL PRESSURE IN INCHES OF HG     <
>     WCI    - WIND CHILL INDEX                            <
>     VSB    - VISIBILITY IN MILES                         <
>     HX     - HEAT INDEX                                  <
>     TC     - TEMPERATURE IN CELSIUS                      <
>     VRB    - VARIABLE WIND DIRECTION                     <
>                                                          <
>>>>>>>>>>>>>>>>>>>>>>>>>>>> KEY <<<<<<<<<<<<<<<<<<<<<<<<<<<




USA.gov is the U.S. government's official web portal to all federal, state and local government web resources and services.